{"data":{"norad_id":60404,"epoch":"2026-09-21T05:58:16.785696Z","epoch_age_seconds":120832,"freshness":"FRESH","line1":"1 60404U 24141G   26264.24880539  .00000516  00000+0  91233-5 0  9999","line2":"2 60404  53.1603 202.5205 0001443  79.0190 281.0990 15.69711398122451","mean_motion":15.69711398,"eccentricity":0.0001443,"inclination_deg":53.1603,"raan_deg":202.5205,"arg_perigee_deg":79.019,"mean_anomaly_deg":281.099,"bstar":9.1233e-6,"rev_number":12245,"period_min":91.73660851509,"perigee_km":358.75047671997,"apogee_km":360.69502304378,"semimajor_km":6737.8597498819,"source":"CELESTRAK","updated_at":"2026-09-22T09:00:49.229937Z"}}